Wind_Speed
3 2 1 4 6 7 7 6 7 7 5 5 3 0 4 5 5 5 6 10 4 6 7 10 10 7 8 10 6 4 3 8 6 5 5 6 7 7 7 7 7 7 5 9 15 19 21 23 25 26 25 24 22 22 23 23 25 26 25 23 24 27 27 29 31 27 26 27 26 25 26 25 25 25 24 24 23 22 22 22 21 21 19 17 17 18
4 4 6 8 9 9 8 7 7 6 6 6 5 3 5 4 7 6 6 10 4 6 6 6 8 7 10 9 6 3 4 8 10 9 7 8 8 7 8 9 8 7 6 9 11 14 19 21 24 26 26 26 25 24 24 25 26 28 28 26 25 28 29 29 32 31 32 33 32 31 30 27 27 26 24 23 21 20 21 22 21 21 19 17 17 18
2 4 10 11 9 7 6 6 6 5 6 6 3 2 3 4 7 7 4 8 5 1 2 3 7 7 9 7 6 4 3 6 10 13 12 12 10 8 9 9 9 10 8 8 10 13 18 22 24 26 26 28 29 28 28 27 29 30 32 32 28 28 30 31 34 34 33 34 33 31 29 27 26 26 24 21 19 19 20 21 21 20 20 18 17 18
3 7 11 11 7 6 7 6 5 4 5 4 3 2 3 5 4 5 4 6 6 3 1 3 5 4 5 4 5 6 3 2 7 12 13 13 12 12 12 10 11 13 11 10 10 11 16 21 23 23 25 28 29 28 30 31 32 34 35 36 33 31 32 33 37 37 33 31 30 28 26 26 25 24 23 19 18 19 19 19 20 20 19 18 18 18
6 9 8 7 6 8 7 7 5 4 4 5 5 5 4 6 5 5 4 4 6 6 2 5 3 5 4 1 4 6 5 3 3 9 9 10 12 11 10 10 12 13 13 13 12 11 14 17 21 22 24 27 27 28 32 34 35 37 34 31 32 36 35 34 36 37 34 31 28 23 20 21 20 21 22 19 17 18 18 18 19 19 18 17 17 17
9 10 5 5 7 8 7 7 6 6 4 5 5 8 9 9 8 6 5 4 6 5 3 5 5 5 5 3 6 5 6 7 1 5 8 9 8 5 6 10 9 8 10 11 11 11 11 14 17 19 22 25 26 28 33 35 34 32 26 23 26 33 35 34 34 35 34 31 27 22 19 18 18 18 21 21 20 19 18 18 19 18 17 16 16 16
7 8 6 7 8 8 8 8 7 8 5 4 6 8 10 7 5 4 5 3 3 2 4 3 5 3 6 4 7 5 5 9 5 2 5 8 6 5 6 6 4 7 6 8 8 9 10 14 17 18 23 27 28 30 30 30 28 23 19 20 25 29 33 34 33 32 32 30 26 23 19 15 15 16 18 21 20 20 20 19 19 19 17 16 15 15
7 8 6 7 8 8 7 7 8 8 6 5 6 7 6 3 6 4 2 1 3 2 4 4 4 3 3 4 7 3 5 8 9 7 4 4 5 8 6 4 7 6 6 7 8 8 7 10 11 13 15 12 10 11 9 12 15 14 16 21 25 27 30 32 33 31 30 28 24 21 17 13 12 13 15 19 19 19 20 19 20 20 19 17 15 15
6 9 9 9 7 6 6 10 11 9 6 7 8 7 5 4 6 3 2 2 1 2 5 6 1 2 4 5 6 5 6 7 8 9 9 7 5 2 4 8 9 7 7 7 8 6 2 0 4 7 8 11 15 17 15 6 2 4 11 19 21 24 27 28 30 30 28 25 21 16 13 10 11 12 14 17 18 18 20 20 20 19 18 17 15 15
5 8 10 9 7 6 9 13 11 9 7 8 6 6 4 2 1 1 2 3 2 3 4 6 2 1 3 5 7 5 5 4 6 7 8 8 10 10 9 9 9 8 8 8 8 7 5 5 8 11 11 11 13 19 20 13 5 2 6 15 19 22 25 26 26 26 25 22 15 9 7 6 6 9 13 15 17 18 19 21 21 19 18 17 16 15
6 5 4 6 6 7 10 10 10 13 10 4 5 4 1 2 3 3 2 2 3 3 6 7 1 4 1 5 5 4 3 4 3 4 7 9 11 11 10 10 9 9 8 9 8 7 8 10 12 13 12 12 11 11 13 12 7 2 5 13 17 19 22 24 22 22 20 16 11 6 7 8 9 11 15 17 18 19 20 21 21 20 19 18 17 16
6 5 2 3 5 5 7 6 7 11 10 5 4 4 1 3 4 4 5 3 1 3 6 7 1 7 2 4 4 5 5 5 5 5 7 9 10 10 9 9 9 8 8 8 8 6 7 9 11 11 10 11 11 9 8 2 6 8 9 13 14 13 17 21 19 19 16 12 11 11 11 15 16 16 18 20 20 21 22 22 22 22 20 19 18 18
5 5 4 3 5 5 6 5 3 2 5 5 4 5 3 1 2 2 3 0 2 4 6 6 2 4 1 4 2 5 6 9 8 7 9 9 9 9 9 8 7 6 6 6 5 4 4 5 6 7 8 9 11 13 13 11 16 12 7 10 12 11 12 16 18 18 17 15 16 19 19 19 20 20 22 22 21 22 23 23 23 23 23 21 20 19
4 6 5 2 4 4 6 5 3 2 3 5 5 5 5 2 1 1 3 0 1 4 6 4 2 1 2 1 2 5 7 8 9 9 9 9 9 9 8 7 6 5 4 3 3 4 4 4 6 7 9 9 11 15 16 19 22 16 4 3 9 12 10 13 17 19 19 18 19 23 23 21 21 22 23 24 22 21 22 24 25 24 24 23 22 20
3 6 4 3 3 4 6 6 6 6 3 4 5 6 5 4 4 3 3 2 2 4 5 3 1 2 3 2 1 5 7 9 9 9 9 9 8 7 7 7 6 5 4 3 3 2 1 4 8 10 10 8 10 13 10 11 20 22 16 9 8 11 11 12 17 19 21 22 22 25 26 23 23 25 24 25 23 21 22 24 25 24 23 23 21 19
5 6 7 6 5 5 6 5 6 6 2 3 3 6 3 5 5 3 3 5 4 1 3 1 1 1 3 2 3 6 9 9 9 9 11 10 8 7 8 7 5 5 5 5 5 5 5 4 1 2 3 5 7 7 4 0 9 15 17 14 10 11 14 15 18 21 23 25 25 26 25 24 24 25 25 26 26 23 23 23 24 23 21 20 19 18
4 6 7 4 4 6 7 6 6 6 3 1 2 3 4 5 7 4 2 1 4 2 3 1 2 1 2 2 4 7 8 8 8 9 10 9 9 9 7 5 5 5 6 6 6 6 7 9 9 9 8 9 10 6 2 1 2 4 8 11 9 12 15 15 18 21 21 21 21 23 23 22 25 26 26 28 26 24 24 23 22 21 20 20 19 20
4 4 6 2 4 8 6 6 4 6 7 4 2 4 3 2 4 3 1 2 3 2 4 1 4 3 3 1 1 5 7 6 7 8 8 8 9 8 6 5 5 4 4 6 6 7 8 9 10 10 8 9 9 3 2 4 3 4 7 11 11 11 13 13 14 18 19 19 19 21 22 23 26 28 28 27 25 24 23 22 21 21 21 22 22 23
4 3 7 3 5 6 2 4 1 2 2 4 4 4 3 3 1 1 2 1 2 2 3 1 2 2 3 2 0 3 5 6 7 7 8 9 7 7 6 6 6 6 5 6 7 6 7 8 9 9 7 7 7 4 0 4 6 6 8 11 13 12 14 16 15 18 20 19 19 21 23 25 26 26 26 26 24 24 23 21 21 23 23 24 25 24
2 2 5 5 4 2 1 2 2 3 2 2 2 1 2 4 3 2 3 4 4 3 3 1 2 0 2 2 3 5 5 7 8 8 9 9 8 7 7 7 8 8 8 8 8 7 7 8 9 9 8 7 7 5 3 5 8 8 7 10 14 16 19 20 20 21 20 18 19 21 24 26 25 25 26 25 24 24 24 22 23 24 25 26 25 24
2 2 3 6 5 1 1 2 5 6 3 1 2 1 1 2 2 2 2 2 4 4 3 3 1 2 3 1 4 6 4 6 8 10 9 8 9 9 8 8 9 9 9 9 9 8 8 10 12 10 10 9 8 7 6 6 8 9 10 12 16 20 22 22 24 23 20 18 20 21 24 26 25 26 26 25 25 25 25 24 24 24 26 27 26 25
1 1 3 3 4 1 1 2 3 5 5 4 3 1 1 3 4 3 2 2 2 3 4 5 3 3 3 0 3 4 4 5 8 11 9 8 10 9 8 9 9 9 9 9 9 8 8 12 15 13 10 9 9 10 7 5 6 7 11 13 17 20 20 20 22 20 17 18 20 22 25 26 25 26 26 26 27 26 25 25 24 23 24 24 25 25
2 3 3 1 4 4 2 8 12 12 11 8 4 1 1 2 4 4 4 4 2 3 2 4 3 3 2 2 3 3 4 5 8 10 9 8 8 8 8 9 9 9 9 9 9 8 10 14 18 18 14 10 10 13 10 5 3 4 7 9 11 13 13 14 16 15 15 18 19 22 26 26 25 26 26 26 27 27 25 24 24 24 24 23 22 23
2 3 2 2 4 3 1 7 11 10 9 6 4 3 2 1 2 5 5 3 3 3 2 4 2 2 2 2 3 4 6 7 7 8 9 9 7 8 9 8 8 9 9 9 8 8 12 17 18 19 17 12 11 13 10 7 6 3 3 4 4 4 6 8 11 13 15 17 18 21 24 26 26 26 27 27 26 27 25 23 25 26 26 25 23 22
0 1 2 2 2 4 3 2 5 7 6 4 3 5 3 1 1 2 1 3 3 2 3 5 2 2 2 4 5 6 9 10 8 8 10 9 7 7 8 8 8 8 8 9 9 10 12 15 15 17 18 16 15 15 13 12 12 11 10 9 7 5 2 4 8 11 13 13 15 18 18 21 25 26 27 27 26 26 25 24 26 27 26 26 25 22
2 1 3 4 3 2 2 2 1 1 3 3 2 6 6 5 5 3 2 4 2 1 2 4 3 3 5 8 8 8 9 10 10 9 9 8 7 7 7 7 7 7 7 9 10 11 11 13 15 17 18 19 19 18 17 17 16 14 13 12 10 7 3 4 7 10 10 10 11 12 12 15 21 25 28 28 27 27 26 26 27 28 27 26 25 23
3 2 2 5 5 5 5 4 4 2 4 3 2 6 6 6 4 4 4 2 3 2 4 2 5 9 8 9 9 8 8 9 9 8 8 8 7 7 7 8 7 7 7 9 10 11 11 13 15 18 20 20 22 23 22 21 20 19 16 13 12 8 5 6 7 7 6 6 8 11 13 15 18 24 28 28 28 27 26 27 27 28 26 24 24 24
4 3 2 5 4 3 5 4 4 5 5 4 3 5 6 6 5 6 4 1 3 5 3 1 7 11 8 8 9 7 7 8 8 8 7 7 7 7 7 8 9 10 10 11 12 11 12 11 12 16 19 20 23 26 26 24 23 22 18 14 13 9 7 7 6 4 4 7 10 11 13 16 18 22 26 28 28 27 27 26 25 25 24 22 24 24
5 0 1 4 4 3 5 8 10 10 7 6 5 4 6 6 6 5 3 1 3 5 5 6 9 8 5 7 9 7 7 8 8 8 7 7 7 7 8 9 10 11 11 12 11 10 10 9 10 14 17 21 25 25 24 24 22 21 18 15 15 12 7 6 4 3 4 9 13 12 11 12 17 20 21 22 24 26 27 26 23 23 22 21 24 22
4 1 2 4 6 5 5 6 9 11 8 7 7 5 5 5 5 5 2 2 5 7 9 13 13 9 5 6 7 7 7 7 8 8 8 8 7 7 9 11 10 10 10 11 10 10 9 9 11 14 17 22 26 25 22 22 21 20 20 17 15 13 8 5 2 2 4 8 13 13 11 10 14 17 15 16 20 23 24 24 23 22 20 22 23 20
3 1 2 3 6 3 4 5 8 9 10 9 8 8 7 6 5 5 3 4 7 8 10 14 13 7 3 5 6 6 6 8 9 9 8 7 6 8 10 11 9 9 10 10 10 9 9 10 13 15 16 20 24 25 22 21 20 20 21 19 16 12 7 3 1 5 8 11 12 12 10 10 13 17 16 17 20 21 22 23 23 22 22 23 22 19
3 1 1 4 5 2 2 6 7 9 11 10 8 8 8 6 4 4 3 2 3 6 11 11 8 5 4 6 7 7 8 10 10 9 8 7 7 10 11 10 9 9 9 10 10 10 10 11 12 13 15 19 22 24 23 21 20 20 21 20 18 13 6 2 5 8 11 13 14 11 8 12 17 21 20 20 20 19 19 22 23 23 23 23 21 18
3 3 1 3 4 3 4 6 6 6 6 5 4 5 6 4 3 3 4 4 3 4 7 6 5 6 6 7 8 9 9 9 8 7 7 7 8 10 10 9 9 9 8 9 9 9 9 9 11 13 16 20 21 22 22 21 20 20 20 20 21 18 14 11 9 10 12 13 15 13 12 15 21 22 19 19 20 18 18 22 23 23 23 21 20 19
3 4 2 2 3 3 3 2 2 3 2 1 1 3 4 4 6 7 6 7 7 7 7 6 8 8 7 7 10 10 8 8 9 8 8 7 6 7 8 8 8 7 7 8 7 8 8 10 12 15 18 20 20 20 21 21 20 20 21 23 24 24 22 19 15 13 13 14 16 17 17 19 22 22 19 19 20 19 20 22 23 22 21 19 19 21
4 4 1 1 3 3 1 3 3 1 3 4 2 3 3 3 7 10 9 9 9 10 12 12 10 8 8 9 11 11 10 10 10 10 9 8 6 5 6 7 7 6 6 7 6 7 10 12 14 17 19 20 20 20 21 22 21 22 24 26 27 26 25 23 20 16 14 13 14 16 18 21 24 24 22 21 20 21 21 20 22 22 20 20 22 25
5 3 2 2 3 2 1 3 2 2 1 2 2 4 4 2 4 6 8 8 8 6 10 13 11 10 11 11 10 10 10 10 10 9 9 8 6 5 5 5 5 5 5 6 6 8 11 13 13 14 17 19 21 22 22 21 21 22 24 27 28 27 27 27 26 22 17 13 12 13 16 20 23 25 24 23 22 23 22 20 21 24 25 25 27 29
5 4 2 2 2 3 2 2 2 1 1 1 2 3 3 2 2 1 3 5 5 4 6 12 13 11 11 11 11 10 9 9 10 8 6 6 5 5 5 4 4 5 6 7 8 10 12 13 13 14 16 19 22 23 23 22 20 22 26 28 27 27 28 29 28 25 21 17 13 12 12 15 18 22 25 26 24 24 24 24 24 26 29 30 30 31
5 4 4 3 2 2 3 2 2 1 2 1 2 3 4 2 1 1 1 3 4 3 5 10 12 12 12 12 11 8 5 7 8 4 5 5 3 3 4 5 6 7 8 10 12 14 15 15 15 16 18 20 21 22 23 24 23 25 28 29 27 26 28 29 26 25 25 22 17 13 11 11 12 15 20 24 24 22 22 23 24 24 27 30 29 29
7 5 4 4 2 2 4 3 2 2 1 0 1 5 6 4 2 1 1 2 2 2 6 9 11 12 11 9 8 5 2 5 4 1 4 4 4 2 1 2 4 7 11 13 15 15 15 16 18 20 22 22 20 19 21 24 26 28 29 28 27 28 29 28 26 24 24 25 22 17 13 12 11 12 13 15 18 19 19 19 19 19 21 25 26 26
6 4 3 4 2 2 2 2 2 1 1 1 3 5 6 5 2 0 2 1 1 1 6 9 10 9 7 5 4 3 2 5 5 2 2 4 7 8 6 3 3 4 8 12 14 15 16 19 22 24 23 22 20 18 20 23 27 29 28 27 28 29 27 26 25 24 25 27 27 22 17 15 14 14 13 12 13 15 15 16 17 17 18 22 24 24
4 3 2 3 3 2 2 3 2 1 1 1 4 7 6 3 1 2 2 2 2 3 5 8 7 5 4 4 5 4 4 5 6 3 3 6 8 9 11 11 10 8 7 8 10 13 17 20 23 22 21 20 20 20 21 24 27 28 27 27 28 27 25 25 26 26 27 29 30 28 24 20 16 15 15 14 15 16 15 15 17 19 19 21 23 23
2 2 2 2 2 2 2 3 2 1 1 2 5 6 3 1 2 1 1 3 5 5 7 8 8 7 8 7 7 7 6 6 7 6 5 7 6 7 11 14 15 15 13 11 10 11 14 18 20 20 20 21 22 22 23 25 26 26 26 27 25 23 24 26 27 28 29 30 31 30 29 26 21 18 16 14 15 17 16 16 19 22 23 24 26 27
0 0 2 2 0 1 3 2 1 2 1 5 5 2 1 1 2 3 4 5 6 7 8 9 8 8 10 10 9 9 9 8 7 6 6 6 6 7 11 13 14 15 15 15 14 13 14 16 17 17 18 19 21 22 24 26 25 24 24 24 22 21 24 26 28 29 30 30 30 29 28 28 26 23 20 17 16 16 16 15 17 21 23 26 28 29
1 1 2 1 1 1 3 2 1 1 2 5 3 2 3 3 3 4 5 6 5 6 7 8 8 8 10 11 10 10 10 8 7 6 6 5 5 7 10 12 14 15 16 17 17 16 16 17 17 17 18 19 19 19 20 22 23 23 22 20 19 21 23 25 27 30 30 30 28 27 26 26 25 25 24 21 19 18 17 17 19 20 22 24 27 29
2 2 3 3 2 3 3 2 2 2 2 3 4 5 6 7 6 6 7 7 6 5 6 8 9 9 10 11 11 10 9 8 6 6 5 4 4 6 8 10 11 13 15 17 18 18 18 18 18 19 20 21 21 20 19 19 20 19 18 17 17 19 21 23 25 27 29 29 28 26 24 24 23 24 25 25 24 22 21 20 21 21 21 22 27 28
1 3 4 4 4 5 6 5 3 4 5 6 8 7 8 8 7 7 8 8 6 6 6 8 9 9 9 10 10 9 8 7 6 4 3 3 3 4 7 8 8 10 12 14 15 17 18 19 20 20 21 22 23 24 23 22 21 18 15 13 14 16 18 21 23 25 25 26 26 25 24 23 22 23 24 26 26 26 25 23 23 23 22 22 25 27
1 2 4 4 3 3 4 4 4 5 7 8 9 9 9 10 8 7 8 8 8 8 8 8 9 9 8 8 9 8 7 6 5 4 3 2 3 3 5 6 7 8 10 11 13 15 16 18 18 18 19 21 21 23 24 24 24 20 16 12 12 14 16 19 21 22 22 22 22 23 24 23 22 23 24 25 25 26 27 26 26 25 24 23 24 25
1 3 4 4 4 4 5 5 6 8 9 8 8 8 8 10 10 9 9 9 9 9 10 11 10 9 8 8 8 7 7 5 4 4 3 2 2 3 4 5 5 6 8 10 13 15 15 16 16 16 17 18 19 20 23 24 23 21 18 14 12 12 14 17 18 19 19 18 18 20 21 22 22 22 24 25 25 26 26 26 26 27 26 24 23 23
3 4 3 4 6 7 7 8 8 9 9 9 9 9 8 8 10 10 9 9 9 9 9 11 11 10 9 8 7 6 6 5 4 4 4 5 5 5 6 8 10 10 10 11 13 14 15 17 17 17 17 17 16 17 20 22 21 20 18 15 13 12 13 15 15 15 16 15 15 16 18 20 21 22 23 24 26 27 26 25 24 25 25 23 22 21
5 5 4 5 6 5 5 5 5 6 6 7 8 10 10 9 10 10 9 8 8 9 9 9 10 11 11 11 9 7 5 4 6 9 9 9 12 13 13 15 17 16 15 14 13 13 15 18 18 17 16 15 13 14 18 20 20 19 17 16 15 14 14 14 14 15 16 14 13 12 14 17 19 20 21 22 23 24 25 25 24 23 23 22 20 19
3 5 4 3 5 5 7 7 5 6 7 7 9 10 9 9 10 10 10 9 8 9 9 9 8 8 8 9 10 9 7 8 12 14 12 12 15 17 16 17 19 17 14 12 12 13 15 18 18 16 16 14 12 14 17 20 21 19 16 15 16 17 16 16 17 20 20 17 13 10 10 13 16 17 19 20 20 21 23 24 24 22 22 21 20 19
Wind_Direction
125 135 224 200 221 224 221 198 197 226 224 247 280 288 289 295 285 276 272 282 251 178 203 194 192 195 228 255 280 304 88 110 116 120 151 171 170 173 162 163 152 132 125 124 138 149 149 152 161 169 173 172 174 179 177 172 170 172 175 176 174 172 176 184 187 193 201 201 204 208 206 205 204 199 198 200 201 203 202 197 193 189 187 188 186 186
108 170 229 220 216 217 221 207 203 233 248 261 274 288 304 298 283 279 278 294 269 186 223 186 170 196 222 255 284 239 131 134 154 155 172 186 186 183 167 167 148 114 113 123 133 143 146 151 160 166 169 169 174 179 177 172 174 179 182 182 178 177 183 190 190 193 201 202 203 205 206 205 202 197 196 197 198 200 199 197 196 194 193 192 187 185
137 213 235 229 216 211 230 224 200 217 242 253 250 261 291 271 280 290 293 320 337 172 267 185 177 218 239 262 284 253 156 155 173 171 177 184 185 186 180 168 137 122 131 144 147 148 153 159 163 167 170 174 179 180 177 176 181 185 187 186 183 183 186 192 196 198 205 207 203 202 203 203 199 195 195 196 197 198 198 198 199 199 199 196 190 186
195 233 233 226 206 198 237 246 214 225 254 249 217 195 253 254 264 286 304 351 353 335 323 163 185 263 284 283 290 284 284 160 182 188 184 178 182 189 186 172 150 147 150 156 156 156 162 165 169 172 173 177 181 179 175 179 185 188 191 189 183 184 184 188 196 202 209 209 205 204 204 203 201 197 196 197 200 201 201 200 199 199 197 194 192 190
223 239 226 215 206 200 225 249 221 210 258 257 224 197 230 258 239 240 279 345 349 337 36 95 54 320 316 314 275 284 316 345 187 196 196 186 191 190 175 173 166 156 157 161 161 164 168 171 174 175 175 178 183 181 177 184 189 188 197 200 188 183 182 184 192 200 206 205 201 202 200 198 196 192 191 191 192 197 200 199 195 191 190 191 192 191
237 240 200 196 218 208 217 244 219 186 223 268 240 206 210 237 241 244 297 9 30 346 327 79 61 303 312 331 274 290 333 319 275 172 207 213 207 181 171 189 171 138 153 158 154 165 171 171 172 173 175 180 190 190 184 189 191 187 200 212 195 185 184 186 189 195 201 200 198 197 192 187 183 181 185 186 185 186 191 193 188 185 188 192 191 192
240 232 190 194 212 212 217 240 226 178 181 253 241 205 197 222 250 266 307 15 83 269 283 79 111 245 313 320 266 282 324 307 336 66 220 224 218 197 198 202 127 107 142 142 142 167 175 173 173 175 179 186 196 196 190 191 191 190 204 206 194 190 191 191 191 193 198 198 199 198 194 191 189 183 184 188 188 183 183 183 182 184 190 194 193 195
232 226 215 198 199 211 215 238 231 173 156 237 228 184 170 232 273 275 307 298 193 238 328 359 117 156 286 277 270 307 7 339 346 356 317 266 236 211 185 111 90 109 128 130 150 170 184 187 178 173 174 185 216 220 207 195 192 202 209 197 191 193 194 194 192 193 195 194 195 196 193 195 200 195 185 188 190 183 180 179 179 184 188 191 195 198
225 213 217 205 194 203 206 229 223 166 163 239 222 187 177 217 246 261 320 276 239 47 335 313 32 114 259 281 317 5 47 11 344 349 2 17 14 18 94 95 100 108 107 118 143 147 152 291 60 73 74 36 8 359 357 344 215 211 195 186 189 193 192 192 193 194 194 192 192 191 188 189 197 198 189 188 189 182 180 179 180 184 184 186 193 199
237 211 209 201 192 199 212 227 216 170 197 233 194 178 188 190 209 351 315 272 2 27 278 275 315 89 277 311 338 11 43 351 325 354 11 30 43 45 52 67 81 89 99 117 131 128 127 121 94 86 80 59 37 22 11 2 2 42 172 181 188 194 192 190 194 196 195 195 194 176 151 155 184 196 192 189 188 182 179 180 181 182 182 185 190 192
252 247 217 193 194 203 206 217 214 197 199 191 145 151 165 7 37 40 19 60 32 322 263 260 253 108 28 319 333 352 342 306 314 31 25 28 41 49 53 56 65 71 80 100 112 116 123 125 116 108 94 76 71 55 32 15 359 330 209 195 191 196 195 192 193 194 192 190 186 157 132 159 181 191 195 192 187 183 180 179 180 180 182 186 188 187
275 269 260 222 224 218 195 203 226 208 184 140 125 132 102 338 14 24 4 43 77 272 263 262 243 96 111 273 313 341 347 7 40 55 49 46 43 44 53 60 68 74 79 94 106 113 118 116 108 108 102 89 104 127 110 77 267 253 230 210 197 195 195 194 191 189 186 178 182 192 194 194 188 182 190 194 190 187 184 181 181 181 184 186 187 189
304 258 250 253 248 226 187 200 246 197 146 120 103 103 116 285 351 355 309 181 187 248 256 248 178 87 198 231 301 2 24 40 51 52 48 53 52 47 48 54 60 71 79 83 90 91 89 98 103 121 144 135 138 147 147 185 217 223 230 220 206 200 196 193 188 184 182 179 192 205 208 206 195 183 186 191 194 192 188 186 184 182 184 187 189 194
312 285 280 267 257 217 164 172 185 166 140 133 133 128 140 159 129 247 266 231 219 253 263 253 179 155 240 210 25 38 53 55 59 59 54 51 51 53 52 53 59 60 64 66 76 95 101 123 139 164 186 177 163 165 174 188 189 186 199 239 211 207 200 187 182 182 183 183 197 207 208 207 200 195 191 187 191 195 192 191 190 187 188 190 193 197
222 283 267 203 240 212 165 168 169 157 144 155 151 134 147 160 150 192 208 170 218 260 292 295 177 167 169 171 36 66 67 60 61 55 57 51 41 52 55 50 55 48 39 33 33 59 112 156 163 184 202 203 193 192 200 187 175 180 190 191 201 207 199 187 179 179 186 190 197 203 205 204 200 202 199 190 191 196 197 195 192 192 193 194 198 198
192 246 251 229 228 203 186 186 148 117 112 222 136 104 149 184 152 162 181 163 169 230 327 299 163 159 150 135 40 58 50 49 59 51 56 57 44 52 53 41 37 24 16 9 6 7 354 357 26 244 276 293 269 252 289 202 167 186 191 184 191 200 195 190 182 182 190 195 199 201 203 201 197 198 201 197 193 194 201 202 195 195 197 197 195 187
175 243 270 265 241 218 195 183 155 135 156 262 99 143 209 179 139 149 218 126 113 144 283 206 125 17 110 80 35 65 56 44 57 57 61 67 65 66 61 44 26 13 14 12 11 15 12 15 12 4 357 336 316 300 298 254 167 179 186 182 187 191 191 189 186 189 191 192 199 201 200 200 197 197 200 199 192 191 200 204 197 195 194 189 180 168
166 250 283 264 243 249 210 174 169 159 148 117 153 207 204 118 108 120 154 8 74 167 267 237 146 167 148 168 342 82 80 63 63 66 68 65 67 72 66 49 33 27 30 27 28 28 26 30 24 16 8 347 337 328 218 204 177 142 160 174 174 178 192 197 195 199 198 195 198 199 198 200 199 199 202 199 190 188 197 200 194 188 182 177 169 163
155 244 288 258 224 249 200 144 243 288 146 135 170 178 123 124 206 107 135 149 124 182 256 312 117 142 159 200 162 92 102 96 79 70 70 62 61 64 51 33 30 38 40 31 30 30 30 28 17 16 20 15 17 24 41 190 174 130 118 154 169 176 186 190 199 209 207 200 197 195 197 199 199 201 202 196 186 186 191 190 186 182 175 170 167 165
141 167 281 281 251 250 53 109 204 275 319 42 79 101 120 145 169 184 171 159 155 190 211 123 58 125 225 222 144 137 130 110 94 79 73 67 62 58 44 34 34 38 37 30 23 20 29 25 9 20 44 46 49 64 93 144 158 143 125 154 177 184 183 185 198 209 208 201 194 192 196 198 199 200 199 191 182 182 184 182 183 182 174 170 170 170
44 123 237 288 320 354 334 241 198 197 202 173 111 93 206 166 146 171 195 146 140 169 181 147 144 256 261 250 145 142 125 111 105 91 79 69 65 59 48 45 42 39 35 28 21 15 26 28 19 32 64 63 55 71 97 115 136 164 181 183 182 183 184 191 200 206 208 204 195 192 195 197 198 197 194 187 182 179 178 180 185 185 177 172 174 173
61 123 186 284 331 298 265 360 95 112 106 115 122 116 216 168 144 155 247 283 111 147 175 153 167 250 273 172 150 144 131 121 106 94 83 72 67 61 53 52 48 44 36 27 22 12 20 33 26 24 47 63 57 54 64 88 114 163 191 197 191 186 187 196 203 207 210 205 196 193 192 193 195 194 189 184 183 179 175 179 186 183 176 173 173 172
129 98 113 242 261 222 141 67 73 81 82 81 81 55 64 94 106 138 217 255 80 104 133 108 116 252 260 139 128 127 124 109 96 94 92 79 69 62 53 47 45 46 38 29 25 14 20 34 30 19 20 40 56 50 45 54 93 164 199 210 205 196 196 204 209 212 215 208 201 196 191 190 192 191 185 182 183 181 176 176 180 176 171 171 172 171
80 71 59 296 292 302 66 76 66 61 65 64 36 20 51 78 153 156 183 191 132 136 122 86 91 245 219 120 118 123 113 100 89 88 87 79 67 59 51 41 38 39 34 28 24 20 26 33 31 22 13 17 38 40 26 11 20 14 301 277 256 234 220 220 223 222 220 213 202 195 191 190 192 189 183 180 180 181 177 170 170 170 167 167 168 168
38 79 79 63 1 342 333 18 34 29 48 69 360 337 348 348 76 116 129 91 107 197 150 120 163 230 157 130 125 119 108 99 86 77 78 75 65 55 50 44 38 34 31 29 25 23 26 27 26 20 10 9 21 25 14 2 6 9 358 349 340 327 287 244 243 231 227 220 201 192 189 190 192 186 176 172 173 177 177 168 166 169 167 164 165 166
120 126 114 120 143 183 215 235 258 345 55 78 1 339 346 357 21 54 87 75 89 268 67 104 160 157 137 139 132 121 114 105 90 79 75 74 68 58 49 45 39 33 31 31 29 25 22 21 21 15 8 9 13 16 16 11 7 8 4 359 354 342 310 264 245 225 222 222 199 190 190 191 190 180 168 165 168 171 173 169 168 171 169 167 169 167
100 55 94 125 144 173 184 200 205 143 86 81 23 1 353 342 10 75 95 96 175 136 40 37 147 134 137 139 123 108 102 98 87 78 74 69 64 59 52 44 37 32 31 34 32 24 19 19 16 9 3 4 9 11 13 13 11 12 8 2 359 342 300 283 258 221 205 203 193 189 191 195 191 177 166 162 164 167 170 169 170 172 171 172 171 167
88 42 59 105 116 171 162 129 91 84 84 86 57 9 350 343 15 73 96 117 141 112 59 259 137 128 133 119 99 87 86 87 79 71 68 63 59 60 58 48 38 32 28 30 29 21 18 15 9 8 4 4 8 8 9 12 13 14 12 5 1 347 312 296 266 218 141 152 174 183 185 192 193 181 171 166 165 167 170 169 170 172 172 172 170 167
104 111 228 106 81 90 118 107 94 90 87 79 67 21 350 358 29 73 112 105 102 123 144 138 113 102 93 84 78 68 71 79 78 72 65 59 57 59 61 55 46 39 32 30 26 19 17 10 2 7 8 8 10 7 5 8 10 13 15 8 2 358 336 306 269 208 120 137 161 173 176 183 189 185 179 174 170 169 170 169 169 171 172 171 169 168
101 243 230 118 77 59 81 109 108 107 102 78 54 28 8 15 46 63 47 46 87 115 128 116 102 84 55 58 66 64 68 73 75 69 60 53 52 60 65 61 52 44 36 30 24 16 13 9 4 4 4 7 9 4 360 3 7 13 17 12 6 3 349 316 295 159 153 153 157 165 164 162 178 185 182 177 175 175 174 171 168 168 170 170 168 168
77 207 238 95 80 53 50 79 98 110 110 88 50 23 17 22 42 47 33 59 82 102 118 112 106 99 75 66 67 63 66 70 66 59 55 49 46 59 64 59 51 44 37 31 26 18 12 11 8 4 1 2 5 3 360 2 9 16 19 20 16 7 349 301 149 132 156 163 160 161 150 137 159 175 176 175 176 178 177 171 167 164 164 166 167 167
76 131 315 73 103 180 150 115 118 113 102 83 49 14 6 11 34 51 53 59 88 132 133 119 110 123 126 101 80 61 59 65 64 59 55 45 42 54 57 52 48 42 36 32 28 21 16 13 8 4 0 1 4 7 7 7 11 15 17 23 28 28 34 106 132 131 143 159 166 163 140 131 148 159 162 164 168 175 175 168 164 164 164 166 168 163
107 109 89 105 128 170 164 152 144 113 90 69 32 352 338 352 42 72 57 31 38 130 140 129 121 127 124 110 92 75 65 64 63 59 54 44 44 54 56 52 50 44 37 34 28 22 18 10 7 9 8 8 9 11 14 18 19 19 21 28 36 43 55 70 89 106 119 137 151 148 130 133 146 150 148 153 163 175 174 162 158 161 162 166 166 158
78 98 133 139 121 156 181 163 101 84 118 165 36 329 318 9 60 77 59 34 51 89 97 91 101 107 106 102 98 92 83 73 66 57 52 46 43 50 54 50 47 42 34 31 26 21 18 13 15 21 19 17 17 19 25 30 30 32 37 41 43 46 51 59 65 74 88 106 125 132 128 129 137 139 138 145 156 160 158 156 157 160 162 164 160 152
82 77 111 104 104 151 162 53 76 167 209 173 101 359 338 39 71 82 70 45 56 92 101 98 102 105 102 101 101 101 97 87 76 63 51 46 41 44 52 48 41 40 36 29 18 13 19 22 24 27 26 24 24 28 33 34 35 40 45 47 48 46 47 53 57 58 63 78 100 118 124 124 127 130 131 135 141 139 136 140 148 153 157 157 152 149
122 105 87 76 94 133 83 55 122 200 230 133 82 11 3 22 45 68 67 46 42 79 107 110 113 113 110 110 108 107 105 94 80 63 46 44 45 45 50 48 44 44 40 30 17 13 21 27 28 31 33 33 33 35 35 34 37 43 48 50 50 48 48 50 49 48 52 60 77 98 112 118 124 129 130 128 127 124 119 117 126 137 144 144 143 143
121 115 97 81 89 119 109 61 89 105 359 98 72 8 8 21 355 21 76 61 44 56 108 119 122 123 120 118 118 120 116 94 71 46 20 26 50 59 59 61 62 59 54 47 40 36 36 38 41 43 44 43 41 39 37 37 41 47 50 50 48 46 49 48 44 43 48 55 67 83 96 107 117 125 130 130 123 114 111 106 108 120 130 133 133 134
84 109 141 144 103 97 110 105 115 172 222 147 76 348 339 342 297 279 130 83 62 79 123 128 130 133 133 135 141 149 125 77 62 22 340 354 28 69 72 70 69 68 66 60 54 49 47 46 47 48 51 52 47 42 42 42 43 49 51 49 44 42 45 45 40 40 46 52 63 81 92 101 113 122 128 131 126 118 116 112 106 111 121 126 126 128
60 70 106 113 108 132 138 141 155 190 220 104 353 320 324 326 311 308 120 96 59 118 143 137 137 145 148 149 155 165 119 86 96 283 314 348 18 34 67 98 82 71 67 63 60 55 51 51 52 51 52 51 45 43 48 48 47 49 49 46 43 41 40 39 39 41 46 53 63 77 88 98 112 122 124 125 124 121 123 125 121 119 123 126 126 126
44 38 69 101 137 178 147 123 124 152 143 33 320 305 310 313 309 234 170 168 25 82 140 140 142 150 150 135 114 85 81 121 140 190 315 33 49 44 42 56 75 79 74 67 64 61 57 55 54 51 48 45 40 43 53 54 52 50 47 45 45 42 38 38 42 46 50 56 62 69 79 93 107 116 116 120 126 125 125 130 136 138 137 133 131 130
30 30 59 110 115 87 91 106 103 115 132 19 310 299 303 307 235 176 184 159 75 67 107 120 121 114 100 95 93 76 65 98 117 120 74 65 59 49 47 50 52 59 70 70 65 62 61 58 56 53 49 47 46 48 54 58 56 52 48 47 45 42 40 43 48 52 54 58 60 61 65 77 93 103 105 112 126 131 131 134 142 148 145 139 136 134
21 30 28 72 102 82 85 102 106 111 84 341 310 293 297 276 187 170 80 91 92 81 84 93 98 98 89 84 93 99 98 96 100 100 80 67 62 54 51 52 53 53 56 62 62 60 61 61 58 54 51 51 52 52 55 59 57 53 51 48 43 43 49 52 54 55 56 58 61 60 59 63 72 85 94 102 115 123 127 134 140 143 143 140 137 133
341 104 74 60 56 95 87 93 142 146 28 334 323 298 328 13 160 128 89 84 88 88 88 86 89 102 104 100 101 106 106 101 95 92 84 73 68 63 59 59 58 55 55 57 58 61 65 64 60 54 50 50 54 56 58 59 58 54 52 48 44 51 59 60 59 59 58 57 58 59 60 61 64 71 81 91 100 106 110 119 128 132 134 133 130 126
323 261 147 151 288 101 119 146 151 126 316 325 344 64 64 61 106 120 105 96 89 91 100 98 94 99 106 108 108 105 100 98 96 93 89 83 78 77 72 67 64 63 61 59 59 62 65 64 62 58 52 49 51 53 55 59 60 59 55 50 49 56 63 65 64 63 61 60 58 56 58 61 62 66 73 80 90 96 98 103 112 119 121 123 122 119
24 73 93 82 62 77 100 126 110 68 349 359 51 77 76 73 82 97 103 105 101 97 104 108 108 106 105 107 108 105 102 102 100 96 97 97 91 86 82 79 77 74 71 67 67 67 66 64 61 58 53 49 48 48 49 52 55 57 56 52 52 57 63 66 67 65 62 63 63 60 58 60 62 66 70 74 80 87 90 96 104 109 114 119 120 117
138 106 92 91 106 92 71 63 65 60 56 64 72 77 79 80 83 92 99 100 102 102 103 107 112 113 111 111 109 107 112 117 117 117 121 113 98 89 87 88 88 85 82 79 76 73 71 67 61 56 52 48 46 47 49 49 49 48 47 46 50 57 63 67 69 69 65 64 65 64 62 62 64 67 72 74 77 79 82 87 95 101 107 114 118 117
345 57 83 99 138 119 71 55 46 57 73 84 85 82 84 86 84 86 93 97 100 100 98 100 105 107 107 108 108 110 115 120 122 132 147 150 148 131 104 89 82 82 85 85 81 79 76 71 65 59 54 49 47 48 49 48 48 47 46 45 47 55 62 64 65 66 65 64 65 64 63 65 65 67 71 76 78 79 80 83 89 94 97 104 112 116
85 86 87 83 83 86 93 99 84 69 69 75 85 91 94 93 92 92 96 102 104 102 102 102 103 104 104 104 109 112 112 111 114 115 111 122 153 158 139 115 95 84 79 77 80 83 78 71 68 66 59 54 51 50 49 47 45 46 48 50 50 55 62 63 62 63 63 63 64 63 63 66 67 68 71 74 76 77 77 79 84 88 90 95 104 111
111 94 91 98 97 92 102 118 108 86 72 68 80 91 93 94 98 100 100 103 104 103 104 104 106 112 117 119 122 120 119 124 119 94 73 64 69 79 87 84 79 82 86 84 84 83 76 71 75 76 67 60 56 52 48 45 42 42 46 51 54 56 58 60 61 65 65 65 65 65 66 67 70 72 74 76 77 78 78 79 82 86 88 91 96 102
89 103 113 119 116 112 125 142 132 108 96 91 95 99 97 97 99 98 97 99 101 106 111 113 117 123 126 131 133 126 120 114 93 82 76 72 69 68 68 68 70 79 91 93 88 81 72 73 81 81 71 64 61 54 45 41 40 41 44 51 55 55 53 55 60 63 64 65 68 71 72 72 73 75 76 78 81 82 83 83 84 87 90 93 94 96
111 148 147 119 109 116 129 133 121 106 109 114 113 109 107 107 105 102 104 104 104 113 119 119 123 127 128 134 133 120 104 96 91 85 80 76 76 75 71 68 70 76 85 87 80 72 69 74 79 77 67 62 60 53 46 43 42 42 44 50 55 57 59 64 67 66 65 66 69 76 83 83 81 81 82 83 86 89 91 90 87 86 89 93 96 97
Height
755 765 771 772 771 768 767 769 768 767 768 769 771 774 773 773 769 761 754 745 741 749 751 748 750 749 745 739 739 743 743 747 751 754 755 755 755 755 756 757 758 761 763 764 765 765 765 766 767 768 769 771 773 774 775 776 778 779 781 783 785 786 786 788 792 794 795 796 796 797 796 796 796 797 800 802 803 805 807 809 811 812 813 815 816 818
758 771 773 765 764 763 764 767 767 767 768 770 773 775 775 773 767 757 753 746 739 746 750 748 750 749 744 740 741 744 744 745 749 753 756 756 755 754 753 755 758 763 765 765 766 766 767 767 766 767 768 769 770 771 773 774 776 777 779 782 782 783 784 786 787 789 789 788 789 790 791 792 794 796 799 801 803 805 807 809 810 811 812 814 815 817
769 773 766 759 761 763 764 765 767 769 769 772 774 776 777 771 762 755 750 745 741 745 750 751 752 750 746 744 742 740 739 741 744 745 748 750 753 753 751 753 758 764 767 766 766 767 766 765 765 766 766 767 767 768 771 772 772 773 775 776 777 779 780 781 784 784 785 785 786 787 788 790 793 795 798 800 803 805 807 808 810 810 811 813 814 816
776 769 758 755 760 763 765 764 767 771 771 772 775 778 777 768 766 763 753 749 746 747 751 753 754 753 748 744 739 735 735 738 741 741 741 744 746 747 747 749 754 761 764 765 765 765 764 764 764 765 766 766 766 767 769 769 769 771 772 770 768 771 776 777 779 781 783 785 787 787 788 789 791 794 797 800 802 805 806 808 809 810 811 813 814 815
770 758 751 756 760 761 765 765 767 773 773 771 770 774 773 764 764 764 757 754 751 748 749 752 762 760 751 749 744 737 737 738 740 741 742 743 742 742 744 747 750 755 758 761 764 763 762 761 762 764 766 765 766 767 766 766 766 768 772 771 765 765 770 774 776 779 782 785 787 788 788 789 790 792 795 798 801 803 805 807 808 810 812 813 814 815
763 751 750 757 759 760 764 766 766 770 774 772 766 763 763 759 759 760 757 758 763 763 752 754 776 775 757 755 751 744 744 741 741 744 744 744 744 745 747 746 749 754 756 759 763 763 761 761 763 764 765 765 765 765 764 764 766 768 771 773 770 767 769 773 776 778 781 783 786 787 789 789 790 792 794 796 798 800 803 805 807 810 812 813 815 815
755 748 749 755 758 759 764 765 761 763 773 774 761 752 754 754 756 757 756 762 771 772 758 754 776 783 768 758 751 748 749 744 743 747 746 744 746 748 749 749 754 759 759 761 765 765 763 762 761 761 762 764 764 765 766 767 770 771 771 771 772 771 770 773 776 778 781 783 785 787 789 791 793 794 795 796 798 799 802 805 807 809 811 813 814 815
748 747 751 753 756 760 765 765 756 756 769 768 752 746 750 750 752 755 757 766 769 767 764 757 762 778 777 761 752 752 755 752 748 749 750 748 745 745 748 752 758 761 762 765 767 767 767 765 764 764 767 771 772 773 775 776 775 774 772 771 772 772 772 773 776 778 780 782 785 788 791 794 796 797 798 798 800 801 802 805 806 808 810 811 813 815
743 747 750 750 757 762 761 755 747 751 760 755 742 742 746 745 749 752 756 765 765 768 776 766 759 775 781 769 761 758 758 760 757 756 759 757 751 750 752 754 758 762 765 767 769 771 773 773 774 775 776 778 779 779 782 783 781 779 776 774 774 774 773 774 775 777 780 782 785 790 793 795 797 799 800 801 801 803 804 804 806 807 809 811 812 814
740 740 739 744 754 756 751 743 741 748 751 743 738 741 743 745 750 751 756 761 764 773 780 768 760 775 786 782 775 768 765 766 762 762 766 765 760 759 761 762 761 763 766 767 769 771 773 775 776 777 776 776 776 779 783 786 786 784 782 779 776 775 774 775 776 778 780 783 786 791 795 798 800 801 802 803 803 804 804 805 805 807 809 810 812 814
737 733 733 737 742 741 738 737 737 740 740 737 739 744 748 753 753 754 759 761 769 782 778 764 759 770 787 793 785 777 774 770 765 768 771 770 769 767 767 768 766 766 768 768 770 772 773 775 776 776 775 773 773 775 780 787 790 788 785 781 778 776 776 776 777 780 782 785 788 792 796 798 800 801 803 803 804 804 805 805 805 806 808 809 811 813
738 736 736 732 730 730 732 736 734 732 734 736 742 748 757 764 763 765 769 769 783 792 777 763 759 766 786 796 789 780 774 771 771 774 775 775 775 773 771 771 770 769 769 769 771 772 774 775 776 776 775 773 772 770 773 782 788 788 786 784 781 780 779 779 780 783 786 788 790 793 795 795 795 797 800 802 803 803 803 804 804 805 807 808 810 812
741 738 736 730 726 726 732 738 737 735 736 739 747 755 768 778 780 782 784 783 791 788 772 764 763 770 787 791 787 783 777 775 776 777 778 779 778 777 775 775 774 773 771 772 773 773 774 775 776 775 773 772 771 769 768 772 779 785 787 786 784 783 783 783 784 786 788 789 791 792 792 792 793 794 796 799 801 802 802 803 804 805 806 807 809 811
749 740 733 732 729 722 727 738 743 743 741 744 750 759 772 784 792 796 795 794 793 782 771 767 766 778 793 790 786 787 783 780 779 779 781 782 781 780 779 777 776 775 774 774 774 773 774 775 774 773 771 770 770 768 766 766 770 779 785 787 786 786 787 786 785 786 787 789 790 789 789 791 792 792 793 796 799 803 803 802 803 804 805 806 808 810
761 755 738 733 732 723 722 729 733 735 738 741 743 750 763 772 782 791 791 790 790 782 774 771 772 784 795 793 789 788 784 783 783 783 781 783 785 782 779 778 777 776 776 774 774 774 774 775 774 773 770 769 769 769 769 768 769 772 777 780 782 785 787 787 785 785 785 785 784 783 784 787 789 791 792 793 796 801 804 803 803 804 805 806 807 809
760 757 735 725 726 721 722 723 721 729 741 741 740 750 760 757 761 775 780 779 783 784 780 778 782 786 789 790 789 788 788 787 787 786 785 787 788 784 782 781 779 779 779 777 778 777 777 777 776 775 773 771 770 770 772 773 773 773 772 774 777 781 785 786 785 783 782 781 780 780 782 785 788 789 791 792 792 796 801 803 803 804 805 806 807 808
756 752 731 724 724 718 719 720 717 727 740 744 746 751 751 744 746 764 779 779 780 787 786 782 787 788 788 791 790 791 794 793 791 790 790 790 789 787 786 785 784 784 783 782 781 781 780 779 779 778 776 774 773 772 774 775 775 776 775 774 776 780 782 783 783 782 782 781 781 782 782 784 786 788 789 790 790 792 798 801 802 803 804 805 806 807
749 749 732 726 730 721 714 717 717 719 728 742 750 745 741 746 747 755 775 785 788 794 788 782 788 792 794 796 792 793 797 796 794 793 791 791 789 788 788 787 787 787 786 785 784 783 782 781 780 780 778 776 774 774 775 776 776 776 776 775 777 780 782 783 783 784 784 783 782 782 782 783 785 786 789 790 790 792 796 800 801 802 803 804 805 807
741 751 738 724 728 722 713 720 728 723 720 730 737 733 739 758 761 760 772 783 790 794 788 786 794 796 797 797 795 795 797 797 796 794 792 792 791 790 790 789 789 788 788 787 785 783 783 782 781 780 779 778 775 774 775 776 777 776 776 776 775 777 779 781 783 784 784 783 782 782 782 783 784 786 789 790 790 792 795 798 800 801 803 804 805 806
738 752 746 726 722 722 719 727 738 736 728 728 732 732 738 750 757 761 766 770 779 789 790 791 798 800 797 797 795 795 796 796 796 794 793 793 792 792 792 791 791 790 790 789 787 785 784 783 783 782 781 780 778 777 776 775 776 776 776 777 775 773 773 776 778 780 781 782 782 781 782 783 784 786 789 791 791 792 795 797 799 800 802 803 805 806
738 749 750 733 724 728 732 732 734 735 735 736 740 745 744 742 746 754 760 761 764 776 784 788 798 804 798 794 795 794 795 795 793 793 794 795 794 795 795 795 794 794 793 793 790 788 785 784 784 783 783 781 780 779 778 777 776 775 774 775 775 773 772 772 773 775 777 778 779 780 781 782 783 785 787 790 792 792 794 796 798 799 800 802 804 806
741 747 749 742 735 737 739 733 729 732 737 741 747 754 753 748 751 759 766 763 758 767 776 780 794 805 797 793 796 796 796 795 793 794 797 798 798 798 798 797 797 796 796 796 794 792 788 785 785 785 785 784 782 781 780 779 778 776 775 775 775 775 773 772 773 774 775 776 776 778 780 781 783 784 786 789 790 790 792 794 796 799 801 803 805 806
740 745 748 747 742 739 740 737 735 735 737 743 751 757 756 754 757 763 767 765 763 771 777 778 791 801 796 794 797 796 796 796 795 796 798 800 801 801 802 801 799 798 798 798 797 794 791 787 787 787 787 786 784 782 782 781 780 779 778 778 778 778 776 775 774 775 775 775 776 778 779 781 782 783 785 786 787 788 790 792 795 799 802 804 807 808
740 748 750 748 742 737 737 737 737 737 739 748 756 757 757 759 760 760 762 762 765 773 775 776 791 800 796 796 797 795 796 796 797 799 799 802 803 803 805 805 803 801 801 801 800 797 794 790 789 789 789 788 785 783 784 784 782 781 780 780 780 779 777 776 775 776 775 775 776 777 778 780 781 782 784 785 786 788 790 792 795 798 800 803 807 809
744 753 754 753 753 750 745 743 745 749 754 761 766 761 758 759 755 754 759 760 766 776 772 771 790 800 796 796 797 796 797 798 801 802 802 805 807 806 806 807 806 805 804 804 802 799 797 793 791 791 791 789 787 786 786 786 784 783 781 780 779 778 778 777 775 775 775 776 778 778 779 780 781 782 783 784 786 789 790 793 797 799 801 802 806 808
745 754 753 756 762 763 761 760 761 764 767 769 772 767 763 761 755 754 758 760 768 779 777 777 791 799 796 796 798 797 799 801 804 805 806 808 810 809 808 808 808 808 807 805 803 801 800 797 795 794 793 791 789 788 788 787 785 784 782 780 779 778 777 775 774 774 775 777 779 780 782 783 783 783 783 785 787 790 792 795 798 800 801 803 805 807
747 755 754 754 758 761 765 768 765 767 771 774 776 773 770 769 763 758 760 764 768 777 785 789 791 794 797 797 799 801 803 805 807 809 810 811 812 812 811 810 810 810 809 805 804 805 804 802 800 798 796 793 790 789 788 787 786 784 782 781 779 778 776 775 775 775 776 778 781 782 783 784 784 784 784 786 788 790 792 795 797 799 801 803 805 807
750 759 756 754 757 759 762 765 765 769 778 782 781 778 776 774 767 759 764 773 772 773 787 794 788 790 798 800 802 807 808 809 812 813 814 815 815 815 814 813 812 811 809 807 808 810 809 808 806 804 800 797 793 791 789 788 787 786 784 782 780 779 777 776 777 778 778 780 782 783 783 784 786 785 786 787 789 791 793 795 797 799 801 804 805 807
753 761 758 755 759 762 764 768 772 778 787 792 790 787 783 777 771 767 773 782 778 772 782 791 791 797 805 807 811 814 813 815 816 816 817 818 818 818 817 816 816 815 814 814 814 814 813 812 810 807 805 801 798 796 794 792 790 788 786 784 781 780 778 777 778 779 780 780 781 783 784 785 786 787 787 788 790 792 794 796 798 800 802 804 806 808
754 761 758 756 762 769 771 773 775 780 791 798 798 796 790 784 780 780 781 785 783 780 786 793 800 810 815 817 819 820 819 819 819 819 821 821 822 821 819 819 820 819 819 819 818 817 816 814 812 810 807 804 802 800 798 796 794 791 788 785 783 781 780 779 780 780 780 781 782 783 785 785 786 787 789 791 792 794 795 796 798 800 802 805 807 808
753 761 759 757 767 777 778 778 781 785 792 800 802 801 795 789 787 788 788 788 787 791 797 799 804 814 819 821 824 823 822 822 822 823 825 825 824 822 820 821 822 822 822 821 821 820 818 816 815 813 810 808 806 803 800 798 796 793 791 788 785 783 781 781 781 781 782 783 784 784 785 786 787 788 791 793 794 796 797 797 799 801 803 805 807 809
752 760 761 760 770 780 781 782 787 786 785 791 801 804 800 794 790 792 794 793 791 794 798 800 804 814 820 822 825 826 825 825 827 828 828 827 825 822 822 824 825 825 825 824 823 822 821 820 818 816 814 812 809 806 803 800 798 795 793 790 787 785 783 782 783 783 784 785 785 786 786 787 788 790 792 793 794 797 798 798 799 801 803 805 807 808
754 759 763 763 770 779 781 781 782 777 772 782 799 807 804 799 795 795 798 798 794 792 795 799 806 816 821 822 824 829 830 830 831 830 830 830 828 826 826 828 828 828 828 827 826 825 824 823 821 819 817 815 812 809 806 804 801 799 796 794 791 788 786 785 785 785 786 786 786 787 787 788 789 790 791 793 795 798 799 798 799 801 803 805 807 808
757 758 763 765 769 778 783 781 778 774 775 789 804 807 804 801 799 800 804 804 800 798 801 807 814 820 823 823 826 831 834 834 834 833 832 832 831 830 830 830 830 830 830 829 829 828 827 825 823 821 820 817 815 813 810 807 805 803 800 797 794 792 790 788 788 788 788 787 787 788 788 789 789 790 791 793 796 799 799 799 800 802 803 805 807 808
759 761 764 766 770 779 785 781 777 780 790 801 807 805 803 802 801 803 808 809 808 807 810 815 822 826 827 828 829 832 835 835 834 835 835 834 834 834 833 833 832 832 832 831 831 830 828 826 825 823 821 820 818 815 812 810 808 805 803 800 798 796 794 792 791 790 790 790 789 789 789 790 790 791 793 795 797 797 798 799 800 802 804 805 807 808
759 762 766 770 774 781 786 784 783 793 803 807 806 806 805 804 803 804 808 812 814 813 813 818 825 829 830 831 832 833 835 834 833 836 837 837 837 836 835 835 834 833 833 833 832 831 829 828 827 826 824 823 820 817 815 813 811 808 805 803 801 800 798 796 794 794 793 792 792 792 792 792 792 793 794 796 798 798 799 801 802 802 804 805 807 809
759 762 770 772 775 784 794 799 802 805 806 807 810 812 810 809 810 809 810 815 818 816 817 821 826 829 831 833 833 833 832 832 835 839 840 839 839 838 837 837 836 834 833 833 832 831 830 829 828 827 826 824 822 820 818 816 813 810 807 805 804 803 801 799 798 798 797 796 796 795 795 795 795 795 796 797 799 801 802 803 804 804 805 806 808 810
762 763 769 771 778 790 799 807 810 805 803 809 815 815 813 812 812 811 811 815 819 819 819 822 826 829 831 832 833 832 829 832 841 846 843 841 839 838 838 838 837 835 834 833 833 832 831 830 829 828 827 825 823 822 820 818 815 811 808 807 808 806 804 802 802 802 800 799 798 798 798 798 798 799 799 799 801 803 804 805 806 808 808 809 810 812
771 772 772 772 781 790 792 797 803 803 806 815 819 817 814 812 813 811 809 812 819 821 820 823 826 829 830 830 831 830 829 837 848 850 844 841 840 839 840 839 838 837 836 834 834 833 832 832 830 829 827 825 825 824 822 820 818 813 811 811 811 809 807 806 806 805 803 801 800 800 800 800 801 802 802 802 802 804 806 807 808 811 813 813 814 815
775 777 776 776 784 789 789 796 806 810 814 820 820 817 814 814 814 809 802 807 819 821 819 822 827 828 829 830 831 832 833 839 847 848 844 843 842 840 840 840 839 838 837 836 836 835 834 833 830 829 828 828 827 826 824 822 820 817 815 815 814 812 812 811 810 809 807 804 802 802 802 802 803 803 804 805 805 806 808 809 809 812 815 816 817 818
782 782 781 783 790 794 796 805 812 816 818 821 821 818 815 814 812 805 802 812 823 823 820 824 827 829 831 832 834 838 840 841 844 846 845 843 842 842 841 840 839 839 838 838 838 837 836 834 832 832 831 831 830 828 826 824 822 820 820 818 816 816 816 816 814 811 809 807 805 805 805 805 805 805 805 806 807 807 809 811 812 813 815 816 817 819
789 789 787 791 795 797 803 810 811 814 820 822 820 818 815 811 809 809 814 822 825 824 825 827 829 832 835 837 839 843 845 845 845 846 846 845 844 844 843 842 841 840 840 839 839 838 837 835 835 835 834 833 832 831 828 827 825 824 823 822 821 821 820 819 816 814 812 809 808 808 808 808 807 807 807 808 809 809 810 812 813 814 816 817 818 819
799 798 797 803 803 798 803 809 806 809 819 822 818 815 815 813 814 819 824 826 826 827 829 830 833 835 836 840 843 845 846 847 847 847 847 847 847 846 845 844 843 842 842 841 841 840 839 837 837 837 837 836 835 833 832 830 829 828 827 826 825 825 823 821 819 817 815 813 812 812 812 812 811 811 810 811 811 811 812 814 815 816 817 818 819 820
805 801 800 810 810 799 800 809 812 816 823 821 816 816 818 819 820 823 825 827 830 831 830 832 837 838 837 841 845 846 848 849 849 848 849 849 848 848 847 846 845 844 844 843 842 841 840 839 839 839 839 838 837 836 835 834 832 832 831 831 830 828 825 824 822 820 819 818 817 817 817 816 816 815 815 814 813 813 814 816 817 817 819 820 820 822
806 802 799 808 815 810 810 819 824 825 824 821 819 821 822 823 824 825 826 829 832 833 832 834 838 840 840 842 845 847 850 851 850 851 850 850 850 849 848 847 847 846 845 844 844 843 842 841 841 841 841 840 839 839 838 836 835 834 834 834 833 830 828 826 825 823 822 821 821 822 822 821 820 820 818 817 816 816 817 818 819 819 821 822 822 824
804 803 801 809 816 816 819 825 826 825 825 823 823 824 825 826 828 828 828 831 833 834 835 836 838 841 842 843 845 849 851 851 851 852 851 850 850 849 849 849 848 848 847 846 846 845 844 843 842 842 842 842 842 841 840 838 837 836 836 836 835 833 832 829 827 826 826 825 825 826 826 825 825 824 823 821 821 821 821 821 821 821 822 824 824 826
803 801 804 811 814 815 822 829 828 827 828 827 826 828 828 829 831 831 832 834 836 836 837 838 840 843 844 845 847 849 850 851 851 851 851 851 850 850 850 850 850 849 849 848 847 847 846 845 844 844 844 844 844 843 842 840 839 838 838 838 837 835 834 832 830 829 829 829 829 829 828 828 828 827 826 825 825 825 825 825 825 824 825 826 828 829
802 802 806 812 815 817 825 831 830 829 830 829 828 831 831 832 833 834 836 838 839 839 841 842 843 844 845 847 848 849 850 851 850 850 851 851 850 851 851 850 851 850 850 850 849 848 847 846 846 846 846 846 846 845 844 842 841 840 839 839 838 837 835 834 832 831 831 831 831 831 830 831 830 829 829 828 828 828 829 830 829 829 830 831 832 833
799 803 809 813 818 823 828 830 830 831 833 833 833 834 834 834 835 837 839 841 842 842 844 845 846 847 847 848 849 849 850 851 850 850 850 850 850 850 850 851 851 851 851 851 851 850 849 849 848 848 848 848 848 847 846 844 844 842 841 840 840 839 837 836 835 834 833 833 833 833 833 833 832 832 832 831 831 832 833 834 834 834 834 835 836 837
803 811 813 813 818 823 826 827 827 828 833 837 837 836 836 837 837 839 841 843 844 845 845 846 848 848 848 849 849 849 850 851 851 851 850 850 851 851 851 851 851 851 852 853 852 851 851 851 851 851 851 850 850 849 848 847 846 844 843 842 841 840 839 837 837 836 835 835 835 835 835 835 834 834 834 834 834 835 836 837 838 838 839 839 840 840
806 811 811 811 815 820 823 825 825 827 833 838 838 837 838 839 839 841 843 844 845 846 846 846 848 849 849 850 850 849 850 850 851 851 851 851 852 852 852 853 853 853 854 854 853 853 853 853 853 853 853 852 852 851 850 849 847 846 845 844 843 842 841 840 839 838 838 837 837 837 837 837 837 837 836 836 837 838 839 840 841 842 843 843 843 843